星链-30943 (STARLINK-30943 )

导读

STARLINK-30943是美国太空探索技术公司SpaceX星链星座中的一颗卫星,于2023年11月28日发射入轨。星链星座旨在为全球提供高速低延迟互联网覆盖,该卫星是星座组网部署中的一员,依托一箭多星发射技术入轨,承担卫星互联网服务的组网任务,助力星链系统覆盖能力的拓展与全球卫星互联网服务的完善。

基本信息
目录编号:
58449
目录名称:
STARLINK-30943
国际标识:
2023-183N
轨道中心:
EARTH
卫星名称:
星链-30943
卫星全名:
星链-30943 (STARLINK-30943 )
卫星状态:
在轨 (已飞行1011 天)
发射日期:
2023-11-28 UTC
国别 :
美国 (US)
星等 :
--
轨道信息
数据来源 国际轨道数据
星历时间: 2026-09-03T22:45:40+0800
17小时前
查看轨道信息
半长轴: 6861.187km
偏心率: 0.0001028
轨道倾角: 43.003°
近地点辐角 267.386°
升交点赤经 90.927°
平近点角 92.688°
近地点: 482.344km
远地点: 483.756km
周期: 94.267分钟
每日圈数: 15.275798
详细信息
固有亮度:
5
最大亮度:
0.3
卫星平台:
Starlink v2.0 mini
覆盖范围:
全球
运营商:
太空探索技术公司
运营商所在国:
美国
制造商(研发单位):
太空探索技术公司
制造商所在国:
美国
使用方式:
暂无
卫星简介
星链(Starlink)计划是由太空探索技术公司(SpaceX)提出的一个巨型低轨卫星互联网星座项目,计划在2019年至2024年间在太空搭建由约1.2万颗卫星组成的“星链”网络,其中1584颗将部署在地球上空550千米处的近地轨道,并从2020年开始工作。该卫星仍在工作。
2D轨道图
3D轨道图
轨道高度分析图
轨道倾角分析图
轨道综合分析图
查看轨道综合分析图
交会数据列表
事件ID 空间交会对象 最接近时刻(TCA) 交会距离 交会风险概率(CRP) 交会风险指数(CRI) 操作
CDM_260905-125005-844906-681721
2026-09-05T
12:50:14+0000
0.144 km
中距离
8.669395E-4 高风险 0.94
CDM_260904-171305-844906-681722
2026-09-04T
17:13:18+0000
0.802 km
远距离
3.652418E-5 中风险 0.66
CDM_260904-153905-844906-681722
2026-09-04T
15:39:09+0000
0.823 km
远距离
3.365019E-5 中风险 0.66
CDM_260905-111605-844906-681721
2026-09-05T
11:16:05+0000
1.834 km
极远距离
2.413552E-6 低风险 0.43
CDM_260904-140505-844906-681721
2026-09-04T
14:05:00+0000
2.250 km
极远距离
1.477557E-6 低风险 0.38
CDM_260904-184705-844906-681722
2026-09-04T
18:47:28+0000
2.290 km
极远距离
1.426012E-6 低风险 0.38